Location: Ladrillo (historical)
(32.8195°N, 117.2231°W)
Time: 08:16:52
(UTC+00:00)

Envisat - Visible Passes

Search period start: 18 September 2021 00:00
Search period end: 28 September 2021 00:00
Orbit: 764 x 766 km, 98.2° (Epoch: 17 September)

Date Brightness Start Highest point End Pass type
(mag) Time Alt. Az. Time Alt. Az. Time Alt. Az.
18 Sep 5.9 11:46:16 10° ENE 11:49:08 15° E 11:51:59 10° SE visible
19 Sep 3.4 12:46:30 10° NNE 12:51:35 69° ESE 12:56:37 10° S visible
20 Sep 5.1 12:10:18 10° NE 12:14:39 28° E 12:18:58 10° SSE visible
21 Sep 6.1 11:36:06 10° ENE 11:37:32 11° E 11:38:57 10° ESE visible
21 Sep 3.0 13:11:51 10° N 13:16:53 64° WNW 13:21:53 10° SSW visible
22 Sep 3.9 12:35:06 10° NNE 12:40:04 52° E 12:45:00 10° S visible
23 Sep 5.5 11:59:13 10° NE 12:03:04 22° E 12:06:54 10° SE visible
24 Sep 3.0 13:00:18 10° N 13:05:24 83° WNW 13:10:28 10° SSW visible
25 Sep 4.4 12:23:46 10° NNE 12:28:32 40° E 12:33:15 10° SSE visible
26 Sep 5.9 11:48:19 10° NE 11:51:29 16° E 11:54:37 10° SE visible
27 Sep 3.2 12:48:48 10° NNE 12:53:54 76° ESE 12:58:57 10° S visible
